Lid_Strength_Index
5 8 9 8 7 7 7 8 8 7 6 8 7 7 6 5 5 4 4 3 3 3 2 2 1 1 1 0 -0 0 0 -0 0 1 1 1 1 0 -0 -0 -1 -1 -1 -1
6 8 6 6 6 7 7 8 8 7 6 7 7 8 6 5 5 4 4 3 3 3 3 2 2 1 1 1 0 0 0 0 0 0 0 0 0 0 -0 -0 -1 -1 -1 -1
7 6 5 6 7 8 8 8 8 8 7 7 8 8 7 5 4 4 4 3 3 3 3 3 2 2 1 1 1 1 -0 -0 -0 -0 0 0 0 0 1 0 0 -0 -1 -1
6 5 6 6 7 7 9 7 7 8 8 10 7 11 7 6 6 5 4 4 4 4 3 3 2 2 2 1 1 0 0 -0 -0 -0 0 1 2 2 1 1 0 -0 -1 -0
7 6 7 7 7 6 8 6 7 8 8 8 8 10 8 6 7 6 5 5 4 3 3 3 3 2 2 1 1 1 0 0 -0 -0 -0 1 1 1 0 0 -0 -0 -0 -0
6 4 5 6 5 5 5 6 7 7 8 11 9 9 9 8 7 6 5 5 4 4 3 3 2 2 2 1 1 1 1 1 1 0 0 1 1 1 1 1 1 1 0 0
7 7 5 6 7 6 6 8 12 12 12 13 8 10 8 7 6 6 6 5 4 3 3 3 3 2 2 2 1 1 1 1 1 1 1 1 1 1 1 1 1 1 1 1
10 11 7 5 7 8 7 8 11 15 14 12 9 11 11 7 6 5 5 4 4 4 3 3 2 2 2 2 1 1 1 1 1 1 1 0 0 1 1 1 1 1 1 1
10 11 7 8 7 7 8 10 7 11 10 12 11 10 8 7 7 6 6 5 4 4 3 3 2 2 1 1 1 1 1 1 0 0 0 0 0 1 1 0 0 1 0 0
8 11 7 7 7 6 7 6 11 10 15 17 13 13 14 10 8 6 6 5 4 3 3 3 2 1 1 2 0 0 0 1 0 0 -0 0 1 0 1 1 1 1 0 0
6 9 9 7 8 8 8 9 8 9 12 15 16 14 9 10 9 8 6 5 4 4 3 3 2 1 1 1 1 1 0 0 0 0 -0 -0 0 0 0 1 1 1 0 1
6 9 12 10 7 6 7 8 9 14 14 12 12 12 7 8 6 7 6 5 5 4 4 4 3 3 2 2 2 1 0 1 1 -0 -0 0 -0 -0 0 1 0 0 1 0
6 9 13 11 9 7 8 8 8 8 10 14 16 14 6 6 6 5 5 5 4 4 4 3 3 3 3 2 2 1 1 1 1 0 0 -0 0 0 -0 -0 -0 -0 1 1
5 8 10 13 14 10 10 9 8 8 13 12 12 11 9 7 7 6 5 4 4 4 4 3 3 3 3 2 2 1 1 1 0 1 1 0 0 -0 -0 -0 -0 -0 0 1
6 10 9 8 8 9 9 9 8 9 9 11 10 11 9 8 6 6 5 5 5 5 4 4 3 3 3 2 2 2 1 1 0 1 1 0 -0 -0 -0 -0 -0 -0 -0 0
6 10 9 10 8 8 10 9 9 9 9 9 9 9 6 6 5 6 6 5 5 5 5 4 3 3 3 3 2 2 2 1 0 1 1 1 -0 0 -0 0 -0 -0 0 -0
8 10 11 13 9 9 11 9 8 8 7 8 10 8 6 7 6 5 4 4 4 3 3 3 2 2 2 1 1 1 1 1 1 1 1 1 1 0 0 1 0 0 -0 -0
9 9 10 12 10 17 9 6 7 8 7 6 7 6 5 5 4 4 3 3 4 3 3 2 2 2 1 1 1 0 0 1 1 1 1 0 0 0 0 0 1 0 -0 0
6 8 12 14 12 10 9 7 7 8 8 6 6 6 5 5 4 4 3 3 3 2 2 2 1 1 1 1 1 1 1 1 1 1 1 0 0 0 1 1 1 -0 0 0
7 7 10 11 16 15 10 6 5 5 10 5 5 5 6 5 8 6 3 2 2 2 2 2 2 2 2 1 1 1 1 1 1 1 1 0 0 0 1 1 0 -0 0 1
9 9 12 12 14 11 7 6 5 11 11 5 5 5 5 6 5 3 2 2 2 2 2 2 2 2 2 2 2 3 3 2 1 0 0 0 0 0 0 0 0 0 1 1
10 11 11 11 13 16 5 6 9 8 5 4 4 4 5 4 3 3 3 3 3 3 3 2 3 2 1 1 1 2 2 1 0 0 0 0 0 0 0 0 0 0 1 1
12 9 11 10 9 6 4 5 4 4 4 4 4 4 4 4 4 4 4 4 4 2 2 1 3 3 2 1 1 2 1 1 1 1 1 1 1 1 0 1 1 1 1 2
7 5 9 8 6 6 5 4 3 4 4 3 3 4 4 4 4 4 3 4 3 3 3 2 3 2 2 2 1 1 1 1 1 2 1 1 1 1 1 1 1 1 2 1
6 6 8 7 5 5 4 4 3 3 3 3 3 3 4 4 3 3 3 3 3 2 3 3 3 2 2 1 1 1 1 0 1 2 1 1 1 1 1 1 1 1 0 1
5 6 8 9 6 6 5 4 3 4 4 3 4 4 3 3 4 3 3 3 3 3 3 3 2 2 1 2 2 1 0 0 1 1 2 1 2 2 1 2 2 5 6 7